Hourly Data Report for October 31, 2013

All times are specified in Local Standard Time (LST). Add 1 hour to adjust for Daylight Saving Time where and when it is observed.

PETAWAWA AWOS 2
ONTARIO

45°57'00.000" N
77°19'00.000" W
130.10 m
6106396
71625
YWA

Download Data

Hourly Data (October 2013)
Hourly Data Report for October 31, 2013
Temp Definition
°C
Dew Point Temp Definition
°C
Rel Hum Definition
%
Wind Dir Definition
10's deg

Wind Spd Definition
km/h
Visibility Definition
km
Stn Press Definition
kPa
Hmdx Definition


Wind Chill Definition


Weather Definition


TIME
00:00 5.4 3.6 88 13 9 15.0 100.29      
01:00 4.8 3.6 92 12 6 15.0 100.26      
02:00 4.7 3.6 93 12 9 15.0 100.14      
03:00 4.4 3.5 94 9 13 15.0 100.04      
04:00 4.5 3.6 94 11 9 15.0 99.91      
05:00 4.4 3.7 95 10 15 14.5 99.76      
06:00 4.6 4.0 96 10 13 12.9 99.71      
07:00 4.9 4.3 96 11 11 9.7 99.66      
08:00 5.4 4.5 94 11 11 9.7 99.60      
09:00 5.0 4.7 98 9 15 6.4 99.42     Drizzle
10:00 5.4 5.0 97 11 11 6.4 99.25      
11:00 5.6 5.4 99 11 15 3.5 99.11     Rain
12:00 6.0 5.8 99 11 11 4.0 98.92     Rain
13:00 6.8 6.7 99 13 9 5.6 98.74     Rain
14:00 7.4 7.4 100 13 11 8.0 98.64     Rain
15:00 7.9 7.8 99 13 7 8.0 98.58     Rain
16:00 8.4 8.4 100 10 7 8.0 98.45     Rain
17:00 9.1 9.1 100 13 7 5.6 98.35     Rain
18:00 10.0 10.0 100 11 6 5.6 98.24     Rain
19:00 11.2 11.2 100 11 7 5.6 98.15     Rain
20:00 13.9 13.6 98 16 11 15.0 98.05     Rain
21:00 14.2 13.6 96 15 9 15.0 97.93     Rain
22:00 14.4 13.1 92 16 11 15.0 97.85      
23:00 14.1 13.0 93 13 7 15.0 97.70     Rain

Notes on Data Quality.

Legend

  • E = Estimated
  • M = Missing
  • NA = Not Available
  • ‡ = Partner data that is not subject to review by the National Climate Archives
Date modified: